Time,TemperatureF,DewpointF,PressureIn,WindDirection,WindDirectionDegrees,WindSpeedMPH,WindSpeedGustMPH,Humidity,HourlyPrecipIn,Conditions,Clouds,dailyrainin,SoftwareType,DateUTC
2013-11-15 00:02:00,54.5,49.1,30.07,WNW,288,0.0,0.0,82,0.00,CLR,,0.00,WeatherDisplay:10.37,2013-11-15 06:02:00,
2013-11-15 00:07:00,54.3,48.3,30.06,East,101,0.0,0.0,80,0.00,CLR,,0.00,WeatherDisplay:10.37,2013-11-15 06:07:00,
2013-11-15 00:12:00,53.7,48.3,30.06,ESE,102,0.0,0.0,82,0.00,CLR,,0.00,WeatherDisplay:10.37,2013-11-15 06:12:00,
2013-11-15 00:17:00,53.3,48.3,30.06,East,101,0.0,0.0,83,0.00,CLR,,0.00,WeatherDisplay:10.37,2013-11-15 06:17:00,
2013-11-15 00:22:00,53.1,48.4,30.05,East,101,0.0,0.0,84,0.00,CLR,,0.00,WeatherDisplay:10.37,2013-11-15 06:22:00,
2013-11-15 00:27:00,53.2,48.5,30.05,East,100,0.0,0.0,84,0.00,CLR,,0.00,WeatherDisplay:10.37,2013-11-15 06:27:00,
2013-11-15 00:32:00,53.1,48.4,30.05,East,100,0.0,0.0,84,0.00,CLR,,0.00,WeatherDisplay:10.37,2013-11-15 06:32:00,
2013-11-15 00:37:00,53.0,48.3,30.04,East,100,0.0,0.0,84,0.00,CLR,,0.00,WeatherDisplay:10.37,2013-11-15 06:37:00,
2013-11-15 00:42:00,53.0,48.0,30.04,ESE,102,0.0,0.0,83,0.00,CLR,,0.00,WeatherDisplay:10.37,2013-11-15 06:42:00,
2013-11-15 00:47:00,52.9,48.5,30.04,ESE,108,0.0,0.0,85,0.00,CLR,,0.00,WeatherDisplay:10.37,2013-11-15 06:47:00,
2013-11-15 00:52:00,52.6,48.5,30.04,ESE,122,0.0,0.0,86,0.00,CLR,,0.00,WeatherDisplay:10.37,2013-11-15 06:52:00,
2013-11-15 00:57:00,52.4,48.3,30.04,ESE,121,0.0,0.0,86,0.00,CLR,,0.00,WeatherDisplay:10.37,2013-11-15 06:57:00,
2013-11-15 01:02:00,52.5,48.4,30.04,ESE,122,0.0,0.0,86,0.00,CLR,,0.00,WeatherDisplay:10.37,2013-11-15 07:02:00,
2013-11-15 01:07:00,52.9,48.8,30.03,East,99,0.0,0.0,86,0.00,CLR,,0.00,WeatherDisplay:10.37,2013-11-15 07:07:00,
2013-11-15 01:12:00,53.1,49.0,30.03,East,101,0.0,0.0,86,0.00,CLR,,0.00,WeatherDisplay:10.37,2013-11-15 07:12:00,
2013-11-15 01:17:00,53.0,48.9,30.02,East,83,2.3,2.3,86,0.00,CLR,,0.00,WeatherDisplay:10.37,2013-11-15 07:17:00,
2013-11-15 01:22:00,53.0,49.2,30.02,North,11,1.1,1.1,87,0.00,CLR,,0.00,WeatherDisplay:10.37,2013-11-15 07:22:00,
2013-11-15 01:27:00,53.1,49.3,30.03,NW,320,3.0,3.0,87,0.00,CLR,,0.00,WeatherDisplay:10.37,2013-11-15 07:27:00,
2013-11-15 01:32:00,53.2,49.4,30.03,NW,326,3.5,3.5,87,0.00,CLR,,0.00,WeatherDisplay:10.37,2013-11-15 07:32:00,
2013-11-15 01:37:00,53.2,49.1,30.03,NNW,327,1.1,1.1,86,0.00,CLR,,0.00,WeatherDisplay:10.37,2013-11-15 07:37:00,
2013-11-15 01:42:00,53.3,49.2,30.03,WNW,302,0.0,0.0,86,0.00,CLR,,0.00,WeatherDisplay:10.37,2013-11-15 07:42:00,
2013-11-15 01:47:00,53.3,49.2,30.03,WNW,302,0.0,0.0,86,0.00,CLR,,0.00,WeatherDisplay:10.37,2013-11-15 07:47:00,
2013-11-15 01:52:00,53.4,49.3,30.03,WNW,302,0.0,0.0,86,0.00,CLR,,0.00,WeatherDisplay:10.37,2013-11-15 07:52:00,
2013-11-15 01:57:00,53.6,49.2,30.04,NW,324,2.3,2.3,85,0.00,CLR,,0.00,WeatherDisplay:10.37,2013-11-15 07:57:00,
2013-11-15 02:02:00,53.7,49.6,30.04,NNW,330,1.1,1.1,86,0.00,CLR,,0.00,WeatherDisplay:10.37,2013-11-15 08:02:00,
2013-11-15 02:07:00,53.7,49.6,30.04,NW,304,3.5,3.5,86,0.00,CLR,,0.00,WeatherDisplay:10.37,2013-11-15 08:07:00,
2013-11-15 02:12:00,54.0,49.9,30.03,NW,309,0.0,0.0,86,0.00,CLR,,0.00,WeatherDisplay:10.37,2013-11-15 08:12:00,
2013-11-15 02:17:00,54.1,50.0,30.03,NW,309,0.0,0.0,86,0.00,CLR,,0.00,WeatherDisplay:10.37,2013-11-15 08:17:00,
2013-11-15 02:22:00,54.0,49.9,30.03,ESE,122,0.0,0.0,86,0.00,CLR,,0.00,WeatherDisplay:10.37,2013-11-15 08:22:00,
2013-11-15 02:27:00,53.7,49.9,30.03,ESE,121,0.0,0.0,87,0.00,CLR,,0.00,WeatherDisplay:10.37,2013-11-15 08:27:00,
2013-11-15 02:32:00,53.5,50.0,30.03,ESE,121,0.0,0.0,88,0.00,CLR,,0.00,WeatherDisplay:10.37,2013-11-15 08:32:00,
2013-11-15 02:37:00,53.4,49.9,30.03,North,360,0.0,0.0,88,0.00,CLR,,0.00,WeatherDisplay:10.37,2013-11-15 08:37:00,
2013-11-15 02:42:00,53.6,49.8,30.03,NNW,330,1.1,1.1,87,0.00,CLR,,0.00,WeatherDisplay:10.37,2013-11-15 08:42:00,
2013-11-15 02:47:00,53.6,49.5,30.03,North,349,1.1,1.1,86,0.00,CLR,,0.00,WeatherDisplay:10.37,2013-11-15 08:47:00,
2013-11-15 02:52:00,53.6,49.5,30.03,North,351,1.1,0.0,86,0.00,CLR,,0.00,WeatherDisplay:10.37,2013-11-15 08:52:00,
2013-11-15 02:59:00,53.4,49.6,30.03,North,352,0.0,0.0,87,0.00,CLR,,0.00,WeatherDisplay:10.37,2013-11-15 08:59:00,
2013-11-15 03:04:00,53.4,49.6,30.03,North,351,0.0,0.0,87,0.00,CLR,,0.00,WeatherDisplay:10.37,2013-11-15 09:04:00,
2013-11-15 03:11:00,53.3,49.5,30.03,North,352,0.0,0.0,87,0.00,CLR,,0.00,WeatherDisplay:10.37,2013-11-15 09:11:00,
2013-11-15 03:16:00,53.3,49.8,30.03,North,352,0.0,0.0,88,0.00,CLR,,0.00,WeatherDisplay:10.37,2013-11-15 09:16:00,
2013-11-15 03:23:00,53.0,49.8,30.03,North,352,0.0,0.0,89,0.00,CLR,,0.00,WeatherDisplay:10.37,2013-11-15 09:23:00,
2013-11-15 03:28:00,52.9,49.7,30.03,North,351,0.0,0.0,89,0.00,CLR,,0.00,WeatherDisplay:10.37,2013-11-15 09:28:00,
2013-11-15 03:34:00,52.7,49.8,30.02,North,352,0.0,0.0,90,0.00,CLR,,0.00,WeatherDisplay:10.37,2013-11-15 09:34:00,
2013-11-15 03:39:00,52.7,49.8,30.02,ESE,106,1.1,1.1,90,0.00,CLR,,0.00,WeatherDisplay:10.37,2013-11-15 09:39:00,
2013-11-15 03:49:00,52.5,49.7,30.01,ESE,120,0.0,0.0,90,0.00,CLR,,0.00,WeatherDisplay:10.37,2013-11-15 09:49:00,
2013-11-15 03:53:00,52.3,49.5,30.01,ESE,122,0.0,0.0,90,0.00,CLR,,0.00,WeatherDisplay:10.37,2013-11-15 09:53:00,
2013-11-15 03:58:00,52.2,49.7,30.01,ESE,123,0.0,0.0,91,0.00,CLR,,0.00,WeatherDisplay:10.37,2013-11-15 09:58:00,
2013-11-15 04:04:00,52.3,49.8,30.01,ESE,122,0.0,0.0,91,0.00,CLR,,0.00,WeatherDisplay:10.37,2013-11-15 10:04:00,
2013-11-15 04:08:00,52.2,49.7,30.01,ESE,123,0.0,0.0,91,0.00,CLR,,0.00,WeatherDisplay:10.37,2013-11-15 10:08:00,
2013-11-15 04:13:00,52.2,49.7,30.01,ESE,123,0.0,0.0,91,0.00,CLR,,0.00,WeatherDisplay:10.37,2013-11-15 10:13:00,
2013-11-15 04:18:00,52.2,49.7,30.00,SE,136,0.0,0.0,91,0.00,CLR,,0.00,WeatherDisplay:10.37,2013-11-15 10:18:00,
2013-11-15 04:23:00,52.1,49.6,30.00,SE,131,0.0,0.0,91,0.00,CLR,,0.00,WeatherDisplay:10.37,2013-11-15 10:23:00,
2013-11-15 04:28:00,52.0,49.5,30.00,SE,129,1.1,1.1,91,0.00,CLR,,0.00,WeatherDisplay:10.37,2013-11-15 10:28:00,
2013-11-15 04:33:00,51.8,49.3,30.00,SE,128,0.0,0.0,91,0.00,CLR,,0.00,WeatherDisplay:10.37,2013-11-15 10:33:00,
2013-11-15 04:38:00,51.7,49.2,30.00,SE,128,0.0,0.0,91,0.00,CLR,,0.00,WeatherDisplay:10.37,2013-11-15 10:38:00,
2013-11-15 04:43:00,51.6,49.1,30.00,SE,127,0.0,0.0,91,0.00,CLR,,0.00,WeatherDisplay:10.37,2013-11-15 10:43:00,
2013-11-15 04:48:00,51.5,49.0,30.00,SE,129,0.0,0.0,91,0.00,CLR,,0.00,WeatherDisplay:10.37,2013-11-15 10:48:00,
2013-11-15 04:53:00,51.4,48.9,30.00,SSE,160,0.0,0.0,91,0.00,CLR,,0.00,WeatherDisplay:10.37,2013-11-15 10:53:00,
2013-11-15 04:58:00,51.3,49.1,30.00,SSE,160,0.0,0.0,92,0.00,CLR,,0.00,WeatherDisplay:10.37,2013-11-15 10:58:00,
2013-11-15 05:03:00,51.2,49.0,30.00,SSE,161,0.0,0.0,92,0.00,CLR,,0.00,WeatherDisplay:10.37,2013-11-15 11:03:00,
2013-11-15 05:08:00,51.1,48.9,30.00,SSE,162,0.0,0.0,92,0.00,CLR,,0.00,WeatherDisplay:10.37,2013-11-15 11:08:00,
2013-11-15 05:13:00,51.1,48.9,30.00,South,187,0.0,0.0,92,0.00,CLR,,0.00,WeatherDisplay:10.37,2013-11-15 11:13:00,
2013-11-15 05:18:00,51.2,49.2,30.01,SW,221,0.0,0.0,93,0.00,CLR,,0.00,WeatherDisplay:10.37,2013-11-15 11:18:00,
2013-11-15 05:23:00,51.4,49.4,30.01,SW,229,0.0,0.0,93,0.00,CLR,,0.00,WeatherDisplay:10.37,2013-11-15 11:23:00,
2013-11-15 05:28:00,51.3,49.1,30.00,SW,229,0.0,0.0,92,0.00,CLR,,0.00,WeatherDisplay:10.37,2013-11-15 11:28:00,
2013-11-15 05:33:00,51.2,49.0,30.00,SW,230,0.0,0.0,92,0.00,CLR,,0.00,WeatherDisplay:10.37,2013-11-15 11:33:00,
2013-11-15 05:38:00,51.1,48.9,30.00,SW,230,0.0,0.0,92,0.00,CLR,,0.00,WeatherDisplay:10.37,2013-11-15 11:38:00,
2013-11-15 05:43:00,51.1,48.9,30.00,SW,229,0.0,0.0,92,0.00,CLR,,0.00,WeatherDisplay:10.37,2013-11-15 11:43:00,
2013-11-15 05:48:00,51.0,48.8,30.00,SW,229,0.0,0.0,92,0.00,CLR,,0.00,WeatherDisplay:10.37,2013-11-15 11:48:00,
2013-11-15 05:54:00,51.0,48.8,30.00,SW,229,0.0,0.0,92,0.00,CLR,,0.00,WeatherDisplay:10.37,2013-11-15 11:54:00,
2013-11-15 05:58:00,51.0,49.0,30.00,WSW,257,0.0,0.0,93,0.00,CLR,,0.00,WeatherDisplay:10.37,2013-11-15 11:58:00,
2013-11-15 06:03:00,51.1,49.1,30.00,NW,319,0.0,0.0,93,0.00,CLR,,0.00,WeatherDisplay:10.37,2013-11-15 12:03:00,
2013-11-15 06:08:00,51.0,48.8,30.00,NW,319,0.0,0.0,92,0.00,CLR,,0.00,WeatherDisplay:10.37,2013-11-15 12:08:00,
2013-11-15 06:13:00,51.0,48.8,30.01,NW,319,0.0,0.0,92,0.00,CLR,,0.00,WeatherDisplay:10.37,2013-11-15 12:13:00,
2013-11-15 06:18:00,50.8,48.6,30.01,NNW,336,0.0,0.0,92,0.00,CLR,,0.00,WeatherDisplay:10.37,2013-11-15 12:18:00,
2013-11-15 06:23:00,50.8,48.6,30.01,NNW,338,0.0,0.0,92,0.00,CLR,,0.00,WeatherDisplay:10.37,2013-11-15 12:23:00,
2013-11-15 06:28:00,50.6,48.4,30.01,NNW,338,0.0,0.0,92,0.00,CLR,,0.00,WeatherDisplay:10.37,2013-11-15 12:28:00,
2013-11-15 06:33:00,50.6,48.4,30.01,NNW,338,0.0,0.0,92,0.00,CLR,,0.00,WeatherDisplay:10.37,2013-11-15 12:33:00,
2013-11-15 06:38:00,50.4,48.5,30.01,NNW,338,0.0,0.0,93,0.00,CLR,,0.00,WeatherDisplay:10.37,2013-11-15 12:38:00,
2013-11-15 06:43:00,50.3,48.4,30.01,NNW,338,0.0,0.0,93,0.00,CLR,,0.00,WeatherDisplay:10.37,2013-11-15 12:43:00,
2013-11-15 06:48:00,50.0,48.1,30.02,NNW,338,0.0,0.0,93,0.00,CLR,,0.00,WeatherDisplay:10.37,2013-11-15 12:48:00,
2013-11-15 06:53:00,49.8,47.9,30.02,NNW,338,0.0,0.0,93,0.00,CLR,,0.00,WeatherDisplay:10.37,2013-11-15 12:53:00,
2013-11-15 06:58:00,49.2,47.0,30.02,NNW,336,0.0,0.0,92,0.00,CLR,,0.00,WeatherDisplay:10.37,2013-11-15 12:58:00,
2013-11-15 07:03:00,48.9,47.0,30.02,NNW,335,0.0,0.0,93,0.00,CLR,,0.00,WeatherDisplay:10.37,2013-11-15 13:03:00,
2013-11-15 07:08:00,48.7,47.1,30.01,NNW,336,0.0,0.0,94,0.00,CLR,,0.00,WeatherDisplay:10.37,2013-11-15 13:08:00,
2013-11-15 07:13:00,48.9,47.2,30.01,NNW,336,0.0,0.0,94,0.00,CLR,,0.00,WeatherDisplay:10.37,2013-11-15 13:13:00,
2013-11-15 07:18:00,49.1,47.4,30.02,NNW,336,0.0,0.0,94,0.00,CLR,,0.00,WeatherDisplay:10.37,2013-11-15 13:18:00,
2013-11-15 07:23:00,49.6,48.2,30.02,NNW,335,0.0,0.0,95,0.00,CLR,,0.00,WeatherDisplay:10.37,2013-11-15 13:23:00,
2013-11-15 07:28:00,50.3,48.9,30.02,NNW,336,0.0,0.0,95,0.00,CLR,,0.00,WeatherDisplay:10.37,2013-11-15 13:28:00,
2013-11-15 07:33:00,50.9,49.5,30.02,NNW,348,0.0,0.0,95,0.00,CLR,,0.00,WeatherDisplay:10.37,2013-11-15 13:33:00,
2013-11-15 07:38:00,51.5,49.8,30.02,North,356,0.0,0.0,94,0.00,CLR,,0.00,WeatherDisplay:10.37,2013-11-15 13:38:00,
2013-11-15 07:43:00,51.9,49.9,30.02,North,352,0.0,0.0,93,0.00,CLR,,0.00,WeatherDisplay:10.37,2013-11-15 13:43:00,
2013-11-15 07:48:00,52.2,49.9,30.03,North,352,0.0,0.0,92,0.00,CLR,,0.00,WeatherDisplay:10.37,2013-11-15 13:48:00,
2013-11-15 07:53:00,52.8,50.8,30.02,North,352,0.0,0.0,93,0.00,CLR,,0.00,WeatherDisplay:10.37,2013-11-15 13:53:00,
2013-11-15 07:58:00,53.5,50.9,30.02,East,95,1.1,1.1,91,0.00,CLR,,0.00,WeatherDisplay:10.37,2013-11-15 13:58:00,
2013-11-15 08:03:00,54.0,51.1,30.03,East,97,0.0,0.0,90,0.00,CLR,,0.00,WeatherDisplay:10.37,2013-11-15 14:03:00,
2013-11-15 08:09:00,54.9,51.7,30.02,East,99,0.0,0.0,89,0.00,CLR,,0.00,WeatherDisplay:10.37,2013-11-15 14:09:00,
2013-11-15 08:13:00,55.9,52.1,30.02,ESE,103,0.0,0.0,87,0.00,CLR,,0.00,WeatherDisplay:10.37,2013-11-15 14:13:00,
2013-11-15 08:19:00,56.3,52.2,30.02,ESE,114,0.0,0.0,86,0.00,CLR,,0.00,WeatherDisplay:10.37,2013-11-15 14:19:00,
2013-11-15 08:24:00,56.5,52.4,30.02,SE,132,0.0,0.0,86,0.00,CLR,,0.00,WeatherDisplay:10.37,2013-11-15 14:24:00,
2013-11-15 08:29:00,56.6,52.5,30.02,East,81,0.0,0.0,86,0.00,CLR,,0.00,WeatherDisplay:10.37,2013-11-15 14:29:00,
2013-11-15 08:33:00,56.9,52.8,30.02,East,99,0.0,0.0,86,0.00,CLR,,0.00,WeatherDisplay:10.37,2013-11-15 14:33:00,
2013-11-15 08:38:00,57.1,53.0,30.03,East,96,1.1,1.1,86,0.00,CLR,,0.00,WeatherDisplay:10.37,2013-11-15 14:38:00,
2013-11-15 08:43:00,57.4,53.6,30.02,East,88,0.0,0.0,87,0.00,CLR,,0.00,WeatherDisplay:10.37,2013-11-15 14:43:00,
2013-11-15 08:48:00,58.2,53.7,30.02,East,81,0.0,0.0,85,0.00,CLR,,0.00,WeatherDisplay:10.37,2013-11-15 14:48:00,
2013-11-15 08:53:00,58.5,53.7,30.02,NNE,17,0.0,0.0,84,0.00,CLR,,0.00,WeatherDisplay:10.37,2013-11-15 14:53:00,
2013-11-15 08:58:00,58.7,53.9,30.02,ENE,59,0.0,0.0,84,0.00,CLR,,0.00,WeatherDisplay:10.37,2013-11-15 14:58:00,
2013-11-15 09:04:00,59.2,54.4,30.02,ENE,60,0.0,0.0,84,0.00,CLR,,0.00,WeatherDisplay:10.37,2013-11-15 15:04:00,
2013-11-15 09:08:00,59.9,55.1,30.03,NE,34,0.0,0.0,84,0.00,CLR,,0.00,WeatherDisplay:10.37,2013-11-15 15:08:00,
2013-11-15 09:13:00,60.2,55.0,30.02,North,350,0.0,0.0,83,0.00,CLR,,0.00,WeatherDisplay:10.37,2013-11-15 15:13:00,
2013-11-15 09:19:00,60.5,55.3,30.02,ESE,105,0.0,0.0,83,0.00,CLR,,0.00,WeatherDisplay:10.37,2013-11-15 15:19:00,
2013-11-15 09:23:00,61.0,55.5,30.02,NNE,30,2.3,2.3,82,0.00,CLR,,0.00,WeatherDisplay:10.37,2013-11-15 15:23:00,
2013-11-15 09:28:00,61.0,55.1,30.02,ENE,63,2.3,2.3,81,0.00,CLR,,0.00,WeatherDisplay:10.37,2013-11-15 15:28:00,
2013-11-15 09:34:00,61.4,55.5,30.03,SE,125,0.0,0.0,81,0.00,CLR,,0.00,WeatherDisplay:10.37,2013-11-15 15:34:00,
2013-11-15 09:38:00,62.1,55.9,30.03,NW,326,2.3,2.3,80,0.00,CLR,,0.00,WeatherDisplay:10.37,2013-11-15 15:38:00,
2013-11-15 09:43:00,62.6,56.0,30.03,SE,132,1.1,1.1,79,0.00,CLR,,0.00,WeatherDisplay:10.37,2013-11-15 15:43:00,
2013-11-15 09:48:00,63.4,56.8,30.03,East,83,2.3,2.3,79,0.00,CLR,,0.00,WeatherDisplay:10.37,2013-11-15 15:48:00,
2013-11-15 09:53:00,63.8,56.8,30.03,SSE,150,2.3,2.3,78,0.00,CLR,,0.00,WeatherDisplay:10.37,2013-11-15 15:53:00,
2013-11-15 09:59:00,64.4,57.0,30.03,SSW,202,4.6,4.6,77,0.00,CLR,,0.00,WeatherDisplay:10.37,2013-11-15 15:59:00,
2013-11-15 10:03:00,64.5,57.1,30.03,West,260,4.0,4.0,77,0.00,CLR,,0.00,WeatherDisplay:10.37,2013-11-15 16:03:00,
2013-11-15 10:08:00,64.7,57.7,30.03,WSW,252,3.5,3.5,78,0.00,CLR,,0.00,WeatherDisplay:10.37,2013-11-15 16:08:00,
2013-11-15 10:14:00,65.4,57.6,30.03,WSW,246,3.5,3.5,76,0.00,CLR,,0.00,WeatherDisplay:10.37,2013-11-15 16:14:00,
2013-11-15 10:18:00,65.6,57.8,30.03,SW,232,3.5,3.5,76,0.00,CLR,,0.00,WeatherDisplay:10.37,2013-11-15 16:18:00,
2013-11-15 10:24:00,65.7,57.9,30.03,SSE,156,3.5,3.5,76,0.00,CLR,,0.00,WeatherDisplay:10.37,2013-11-15 16:24:00,
2013-11-15 10:28:00,66.0,58.2,30.03,SSW,194,3.5,3.5,76,0.00,CLR,,0.00,WeatherDisplay:10.37,2013-11-15 16:28:00,
2013-11-15 10:34:00,66.4,58.2,30.03,SW,214,10.4,10.4,75,0.00,CLR,,0.00,WeatherDisplay:10.37,2013-11-15 16:34:00,
2013-11-15 10:39:00,66.6,58.4,30.03,WSW,249,6.9,6.9,75,0.00,CLR,,0.00,WeatherDisplay:10.37,2013-11-15 16:39:00,
2013-11-15 10:43:00,66.9,58.3,30.02,SW,222,5.8,5.8,74,0.00,CLR,,0.00,WeatherDisplay:10.37,2013-11-15 16:43:00,
2013-11-15 10:48:00,67.5,58.9,30.02,South,184,9.2,9.2,74,0.00,CLR,,0.00,WeatherDisplay:10.37,2013-11-15 16:48:00,
2013-11-15 10:53:00,68.0,59.4,30.01,ESE,122,8.1,8.1,74,0.00,CLR,,0.00,WeatherDisplay:10.37,2013-11-15 16:53:00,
2013-11-15 10:59:00,68.5,59.1,30.01,WSW,249,10.4,10.4,72,0.00,CLR,,0.00,WeatherDisplay:10.37,2013-11-15 16:59:00,
2013-11-15 11:03:00,68.7,58.9,30.01,SW,215,8.1,8.1,71,0.00,CLR,,0.00,WeatherDisplay:10.37,2013-11-15 17:03:00,
2013-11-15 11:08:00,69.0,58.8,30.01,South,169,10.4,10.4,70,0.00,CLR,,0.00,WeatherDisplay:10.37,2013-11-15 17:08:00,
2013-11-15 11:14:00,69.2,59.0,30.01,SSW,195,8.1,8.1,70,0.00,CLR,,0.00,WeatherDisplay:10.37,2013-11-15 17:14:00,
2013-11-15 11:18:00,69.3,58.7,30.01,WSW,252,6.9,6.9,69,0.00,CLR,,0.00,WeatherDisplay:10.37,2013-11-15 17:18:00,
2013-11-15 11:24:00,69.4,58.8,30.00,SSW,204,11.5,11.5,69,0.00,CLR,,0.00,WeatherDisplay:10.37,2013-11-15 17:24:00,
2013-11-15 11:29:00,69.6,59.0,30.00,SSE,159,10.4,10.4,69,0.00,CLR,,0.00,WeatherDisplay:10.37,2013-11-15 17:29:00,
2013-11-15 11:34:00,69.5,58.5,30.00,SW,224,15.0,15.0,68,0.00,CLR,,0.00,WeatherDisplay:10.37,2013-11-15 17:34:00,
2013-11-15 11:39:00,69.6,59.0,30.00,SSW,208,13.8,13.8,69,0.00,CLR,,0.00,WeatherDisplay:10.37,2013-11-15 17:39:00,
2013-11-15 11:44:00,69.8,58.8,29.99,SSW,210,10.4,10.4,68,0.00,CLR,,0.00,WeatherDisplay:10.37,2013-11-15 17:44:00,
2013-11-15 11:49:00,70.1,59.0,29.99,SSW,211,10.4,10.4,68,0.00,CLR,,0.00,WeatherDisplay:10.37,2013-11-15 17:49:00,
2013-11-15 11:54:00,70.7,59.2,29.99,South,171,9.2,9.2,67,0.00,CLR,,0.00,WeatherDisplay:10.37,2013-11-15 17:54:00,
2013-11-15 11:59:00,70.9,59.8,29.98,SSE,150,12.7,12.7,68,0.00,CLR,,0.00,WeatherDisplay:10.37,2013-11-15 17:59:00,
2013-11-15 12:04:00,71.0,59.1,29.98,SSW,193,3.5,3.5,66,0.00,CLR,,0.00,WeatherDisplay:10.37,2013-11-15 18:04:00,
2013-11-15 12:09:00,71.3,59.4,29.97,SW,218,5.8,5.8,66,0.00,CLR,,0.00,WeatherDisplay:10.37,2013-11-15 18:09:00,
2013-11-15 12:14:00,71.8,59.4,29.97,SW,232,11.5,11.5,65,0.00,CLR,,0.00,WeatherDisplay:10.37,2013-11-15 18:14:00,
2013-11-15 12:19:00,72.4,59.1,29.97,SSW,212,12.7,12.7,63,0.00,CLR,,0.00,WeatherDisplay:10.37,2013-11-15 18:19:00,
2013-11-15 12:24:00,72.4,59.1,29.96,SSW,211,11.5,11.5,63,0.00,CLR,,0.00,WeatherDisplay:10.37,2013-11-15 18:24:00,
2013-11-15 12:29:00,72.6,58.8,29.96,SW,218,11.5,11.5,62,0.00,CLR,,0.00,WeatherDisplay:10.37,2013-11-15 18:29:00,
2013-11-15 12:34:00,72.7,58.9,29.95,SSW,201,11.5,11.5,62,0.00,CLR,,0.00,WeatherDisplay:10.37,2013-11-15 18:34:00,
2013-11-15 12:39:00,72.9,59.1,29.95,SW,218,15.0,15.0,62,0.00,CLR,,0.00,WeatherDisplay:10.37,2013-11-15 18:39:00,
2013-11-15 12:44:00,72.8,59.0,29.94,SW,219,13.8,13.8,62,0.00,CLR,,0.00,WeatherDisplay:10.37,2013-11-15 18:44:00,
2013-11-15 12:49:00,72.9,59.1,29.94,SSW,201,7.0,7.0,62,0.00,CLR,,0.00,WeatherDisplay:10.37,2013-11-15 18:49:00,
2013-11-15 12:54:00,73.0,59.2,29.94,South,169,15.0,15.0,62,0.00,CLR,,0.00,WeatherDisplay:10.37,2013-11-15 18:54:00,
2013-11-15 12:59:00,73.3,59.0,29.93,SSW,212,11.5,11.5,61,0.00,CLR,,0.00,WeatherDisplay:10.37,2013-11-15 18:59:00,
2013-11-15 13:04:00,73.6,59.8,29.93,SSW,194,10.4,10.4,62,0.00,CLR,,0.00,WeatherDisplay:10.37,2013-11-15 19:04:00,
2013-11-15 13:09:00,73.7,59.4,29.93,South,188,13.8,13.8,61,0.00,CLR,,0.00,WeatherDisplay:10.37,2013-11-15 19:09:00,
2013-11-15 13:14:00,73.7,58.9,29.93,SSE,160,6.9,6.9,60,0.00,CLR,,0.00,WeatherDisplay:10.37,2013-11-15 19:14:00,
2013-11-15 13:19:00,74.1,59.3,29.93,SSW,210,8.1,8.1,60,0.00,CLR,,0.00,WeatherDisplay:10.37,2013-11-15 19:19:00,
2013-11-15 13:24:00,74.4,59.6,29.92,WSW,257,11.5,11.5,60,0.00,CLR,,0.00,WeatherDisplay:10.37,2013-11-15 19:24:00,
2013-11-15 13:29:00,74.7,59.4,29.92,SSW,203,8.1,8.1,59,0.00,CLR,,0.00,WeatherDisplay:10.37,2013-11-15 19:29:00,
2013-11-15 13:34:00,75.0,59.7,29.92,WSW,252,11.5,11.5,59,0.00,CLR,,0.00,WeatherDisplay:10.37,2013-11-15 19:34:00,
2013-11-15 13:39:00,74.7,58.9,29.92,South,191,13.0,13.0,58,0.00,CLR,,0.00,WeatherDisplay:10.37,2013-11-15 19:39:00,
2013-11-15 13:44:00,74.9,59.1,29.91,SSW,207,11.5,11.5,58,0.00,CLR,,0.00,WeatherDisplay:10.37,2013-11-15 19:44:00,
2013-11-15 13:49:00,75.3,60.0,29.91,SW,215,5.8,5.8,59,0.00,CLR,,0.00,WeatherDisplay:10.37,2013-11-15 19:49:00,
2013-11-15 13:54:00,75.5,59.2,29.91,South,183,12.7,12.7,57,0.00,CLR,,0.00,WeatherDisplay:10.37,2013-11-15 19:54:00,
2013-11-15 13:59:00,75.4,60.5,29.90,SSW,201,10.4,10.4,60,0.00,CLR,,0.00,WeatherDisplay:10.37,2013-11-15 19:59:00,
2013-11-15 14:04:00,75.8,60.0,29.90,SSW,212,8.1,8.1,58,0.00,CLR,,0.00,WeatherDisplay:10.37,2013-11-15 20:04:00,
2013-11-15 14:09:00,75.9,59.1,29.90,South,188,10.4,10.4,56,0.00,CLR,,0.00,WeatherDisplay:10.37,2013-11-15 20:09:00,
2013-11-15 14:14:00,75.8,59.5,29.90,SSW,211,9.2,9.2,57,0.00,CLR,,0.00,WeatherDisplay:10.37,2013-11-15 20:14:00,
2013-11-15 14:19:00,75.8,59.5,29.90,South,186,9.2,9.2,57,0.00,CLR,,0.00,WeatherDisplay:10.37,2013-11-15 20:19:00,
2013-11-15 14:24:00,75.8,59.5,29.90,SSE,165,4.6,4.6,57,0.00,CLR,,0.00,WeatherDisplay:10.37,2013-11-15 20:24:00,
2013-11-15 14:29:00,76.0,59.7,29.90,South,179,9.2,9.2,57,0.00,CLR,,0.00,WeatherDisplay:10.37,2013-11-15 20:29:00,
2013-11-15 14:34:00,76.2,59.9,29.90,SSE,156,12.7,12.7,57,0.00,CLR,,0.00,WeatherDisplay:10.37,2013-11-15 20:34:00,
2013-11-15 14:39:00,76.0,59.7,29.89,South,187,12.0,12.0,57,0.00,CLR,,0.00,WeatherDisplay:10.37,2013-11-15 20:39:00,
2013-11-15 14:44:00,76.0,60.2,29.89,SSE,162,11.5,11.5,58,0.00,CLR,,0.00,WeatherDisplay:10.37,2013-11-15 20:44:00,
2013-11-15 14:49:00,76.1,59.8,29.89,South,180,11.5,11.5,57,0.00,CLR,,0.00,WeatherDisplay:10.37,2013-11-15 20:49:00,
2013-11-15 14:54:00,76.4,60.0,29.89,South,186,12.7,12.7,57,0.00,CLR,,0.00,WeatherDisplay:10.37,2013-11-15 20:54:00,
2013-11-15 14:59:00,76.1,59.3,29.88,SSE,153,5.8,5.8,56,0.00,CLR,,0.00,WeatherDisplay:10.37,2013-11-15 20:59:00,
2013-11-15 15:04:00,76.1,59.8,29.88,SSW,194,6.9,6.9,57,0.00,CLR,,0.00,WeatherDisplay:10.37,2013-11-15 21:04:00,
2013-11-15 15:09:00,76.2,59.4,29.88,SSE,165,11.5,11.5,56,0.00,CLR,,0.00,WeatherDisplay:10.37,2013-11-15 21:09:00,
2013-11-15 15:14:00,76.4,60.0,29.88,South,169,6.9,6.9,57,0.00,CLR,,0.00,WeatherDisplay:10.37,2013-11-15 21:14:00,
2013-11-15 15:19:00,76.5,59.6,29.88,SSE,162,9.2,9.2,56,0.00,CLR,,0.00,WeatherDisplay:10.37,2013-11-15 21:19:00,
2013-11-15 15:24:00,76.5,59.6,29.88,SSW,197,9.2,9.2,56,0.00,CLR,,0.00,WeatherDisplay:10.37,2013-11-15 21:24:00,
2013-11-15 15:29:00,76.5,59.6,29.87,SSE,162,10.4,10.4,56,0.00,CLR,,0.00,WeatherDisplay:10.37,2013-11-15 21:29:00,
2013-11-15 15:34:00,76.5,58.6,29.87,South,176,10.4,10.4,54,0.00,CLR,,0.00,WeatherDisplay:10.37,2013-11-15 21:34:00,
2013-11-15 15:39:00,76.6,59.7,29.87,SSE,160,9.2,9.2,56,0.00,CLR,,0.00,WeatherDisplay:10.37,2013-11-15 21:39:00,
2013-11-15 15:44:00,76.6,59.7,29.87,SE,145,9.2,9.2,56,0.00,CLR,,0.00,WeatherDisplay:10.37,2013-11-15 21:44:00,
2013-11-15 15:49:00,76.5,59.6,29.87,SE,124,11.5,11.5,56,0.00,CLR,,0.00,WeatherDisplay:10.37,2013-11-15 21:49:00,
2013-11-15 15:54:00,76.6,59.7,29.87,SSE,164,7.0,7.0,56,0.00,CLR,,0.00,WeatherDisplay:10.37,2013-11-15 21:54:00,
2013-11-15 15:59:00,76.6,59.7,29.87,SSE,156,4.6,4.6,56,0.00,CLR,,0.00,WeatherDisplay:10.37,2013-11-15 21:59:00,
2013-11-15 16:04:00,76.9,60.0,29.87,South,172,9.2,9.2,56,0.00,CLR,,0.00,WeatherDisplay:10.37,2013-11-15 22:04:00,
2013-11-15 16:09:00,77.0,59.6,29.87,South,170,11.5,11.5,55,0.00,CLR,,0.00,WeatherDisplay:10.37,2013-11-15 22:09:00,
2013-11-15 16:14:00,76.8,59.9,29.87,SSW,194,8.1,8.1,56,0.00,CLR,,0.00,WeatherDisplay:10.37,2013-11-15 22:14:00,
2013-11-15 16:19:00,76.7,59.8,29.86,SW,215,9.2,9.2,56,0.00,CLR,,0.00,WeatherDisplay:10.37,2013-11-15 22:19:00,
2013-11-15 16:24:00,76.7,59.8,29.86,SSW,208,5.8,5.8,56,0.00,CLR,,0.00,WeatherDisplay:10.37,2013-11-15 22:24:00,
2013-11-15 16:29:00,76.7,59.8,29.86,SSW,193,5.8,5.8,56,0.00,CLR,,0.00,WeatherDisplay:10.37,2013-11-15 22:29:00,
2013-11-15 16:34:00,76.8,60.4,29.87,SSE,163,6.9,6.9,57,0.00,CLR,,0.00,WeatherDisplay:10.37,2013-11-15 22:34:00,
2013-11-15 16:39:00,76.7,59.8,29.87,SSE,161,8.1,8.1,56,0.00,CLR,,0.00,WeatherDisplay:10.37,2013-11-15 22:39:00,
2013-11-15 16:44:00,76.5,59.6,29.86,South,174,8.1,8.1,56,0.00,CLR,,0.00,WeatherDisplay:10.37,2013-11-15 22:44:00,
2013-11-15 16:49:00,76.3,59.4,29.86,SE,134,6.9,6.9,56,0.00,CLR,,0.00,WeatherDisplay:10.37,2013-11-15 22:49:00,
2013-11-15 16:54:00,76.2,59.9,29.86,SSE,164,3.5,3.5,57,0.00,CLR,,0.00,WeatherDisplay:10.37,2013-11-15 22:54:00,
2013-11-15 16:59:00,76.1,59.8,29.86,South,172,3.0,3.0,57,0.00,CLR,,0.00,WeatherDisplay:10.37,2013-11-15 22:59:00,
2013-11-15 17:04:00,76.1,59.8,29.86,South,170,3.5,3.5,57,0.00,CLR,,0.00,WeatherDisplay:10.37,2013-11-15 23:04:00,
2013-11-15 17:09:00,75.9,59.6,29.87,SSE,150,3.5,3.5,57,0.00,CLR,,0.00,WeatherDisplay:10.37,2013-11-15 23:09:00,
2013-11-15 17:14:00,75.5,59.7,29.87,South,169,3.5,3.5,58,0.00,CLR,,0.00,WeatherDisplay:10.37,2013-11-15 23:14:00,
2013-11-15 17:19:00,75.2,59.4,29.87,South,174,3.5,3.5,58,0.00,CLR,,0.00,WeatherDisplay:10.37,2013-11-15 23:19:00,
2013-11-15 17:24:00,74.8,59.5,29.87,SSE,159,3.5,3.5,59,0.00,CLR,,0.00,WeatherDisplay:10.37,2013-11-15 23:24:00,
2013-11-15 17:29:00,74.2,59.4,29.86,SSE,160,3.5,3.5,60,0.00,CLR,,0.00,WeatherDisplay:10.37,2013-11-15 23:29:00,
2013-11-15 17:34:00,73.6,59.3,29.86,South,170,3.5,3.5,61,0.00,CLR,,0.00,WeatherDisplay:10.37,2013-11-15 23:34:00,
2013-11-15 17:39:00,72.8,59.0,29.86,South,175,3.5,3.5,62,0.00,CLR,,0.00,WeatherDisplay:10.37,2013-11-15 23:39:00,
2013-11-15 17:44:00,72.3,59.0,29.86,SSE,165,2.3,2.3,63,0.00,CLR,,0.00,WeatherDisplay:10.37,2013-11-15 23:44:00,
2013-11-15 17:49:00,71.8,59.0,29.86,SSE,153,2.3,2.3,64,0.00,CLR,,0.00,WeatherDisplay:10.37,2013-11-15 23:49:00,
2013-11-15 17:54:00,71.6,58.8,29.86,SE,145,3.5,3.5,64,0.00,CLR,,0.00,WeatherDisplay:10.37,2013-11-15 23:54:00,
2013-11-15 17:59:00,71.5,58.7,29.86,SSE,153,1.1,0.0,64,0.00,CLR,,0.00,WeatherDisplay:10.37,2013-11-15 23:59:00,
2013-11-15 18:04:00,71.2,58.4,29.86,SSE,155,0.0,0.0,64,0.00,CLR,,0.00,WeatherDisplay:10.37,2013-11-16 00:04:00,
2013-11-15 18:09:00,70.8,58.4,29.86,SSE,155,0.0,0.0,65,0.00,CLR,,0.00,WeatherDisplay:10.37,2013-11-16 00:09:00,
2013-11-15 18:14:00,70.4,58.1,29.86,SSE,155,0.0,0.0,65,0.00,CLR,,0.00,WeatherDisplay:10.37,2013-11-16 00:14:00,
2013-11-15 18:19:00,69.9,58.0,29.86,SSE,155,0.0,0.0,66,0.00,CLR,,0.00,WeatherDisplay:10.37,2013-11-16 00:19:00,
2013-11-15 18:24:00,69.3,58.3,29.87,SSE,155,0.0,0.0,68,0.00,CLR,,0.00,WeatherDisplay:10.37,2013-11-16 00:24:00,
2013-11-15 18:29:00,68.8,58.2,29.86,SSE,155,0.0,0.0,69,0.00,CLR,,0.00,WeatherDisplay:10.37,2013-11-16 00:29:00,
2013-11-15 18:34:00,68.2,58.0,29.86,SSE,155,0.0,0.0,70,0.00,CLR,,0.00,WeatherDisplay:10.37,2013-11-16 00:34:00,
2013-11-15 18:39:00,67.9,57.8,29.87,SSE,155,0.0,0.0,70,0.00,CLR,,0.00,WeatherDisplay:10.37,2013-11-16 00:39:00,
2013-11-15 18:44:00,68.2,58.0,29.87,SSE,155,0.0,0.0,70,0.00,CLR,,0.00,WeatherDisplay:10.37,2013-11-16 00:44:00,
2013-11-15 18:49:00,68.4,57.8,29.87,SSE,148,0.0,0.0,69,0.00,CLR,,0.00,WeatherDisplay:10.37,2013-11-16 00:49:00,
2013-11-15 18:54:00,68.4,57.8,29.87,ESE,121,0.0,0.0,69,0.00,CLR,,0.00,WeatherDisplay:10.37,2013-11-16 00:54:00,
2013-11-15 18:59:00,68.2,57.6,29.87,ESE,122,0.0,0.0,69,0.00,CLR,,0.00,WeatherDisplay:10.37,2013-11-16 00:59:00,
2013-11-15 19:04:00,68.2,58.0,29.87,ESE,120,0.0,0.0,70,0.00,CLR,,0.00,WeatherDisplay:10.37,2013-11-16 01:04:00,
2013-11-15 19:09:00,68.0,57.8,29.87,ESE,113,0.0,0.0,70,0.00,CLR,,0.00,WeatherDisplay:10.37,2013-11-16 01:09:00,
2013-11-15 19:14:00,67.7,57.6,29.87,ESE,113,0.0,0.0,70,0.00,CLR,,0.00,WeatherDisplay:10.37,2013-11-16 01:14:00,
2013-11-15 19:19:00,67.7,57.6,29.87,SE,127,2.3,2.3,70,0.00,CLR,,0.00,WeatherDisplay:10.37,2013-11-16 01:19:00,
2013-11-15 19:24:00,67.4,57.7,29.88,ESE,118,0.0,0.0,71,0.00,CLR,,0.00,WeatherDisplay:10.37,2013-11-16 01:24:00,
2013-11-15 19:29:00,67.2,57.5,29.88,SE,135,0.0,0.0,71,0.00,CLR,,0.00,WeatherDisplay:10.37,2013-11-16 01:29:00,
2013-11-15 19:34:00,67.0,57.3,29.88,SE,127,0.0,0.0,71,0.00,CLR,,0.00,WeatherDisplay:10.37,2013-11-16 01:34:00,
2013-11-15 19:39:00,66.9,57.6,29.88,ESE,120,0.0,0.0,72,0.00,CLR,,0.00,WeatherDisplay:10.37,2013-11-16 01:39:00,
2013-11-15 19:44:00,66.6,57.3,29.88,SE,144,0.0,0.0,72,0.00,CLR,,0.00,WeatherDisplay:10.37,2013-11-16 01:44:00,
2013-11-15 19:49:00,66.8,57.5,29.89,SE,143,3.5,3.5,72,0.00,CLR,,0.00,WeatherDisplay:10.37,2013-11-16 01:49:00,
2013-11-15 19:54:00,66.9,57.2,29.89,SE,146,3.5,3.5,71,0.00,CLR,,0.00,WeatherDisplay:10.37,2013-11-16 01:54:00,
2013-11-15 19:59:00,67.0,57.3,29.89,SE,140,3.5,3.5,71,0.00,CLR,,0.00,WeatherDisplay:10.37,2013-11-16 01:59:00,
2013-11-15 20:04:00,66.7,57.0,29.90,SSE,150,5.8,5.8,71,0.00,CLR,,0.00,WeatherDisplay:10.37,2013-11-16 02:04:00,
2013-11-15 20:09:00,66.0,57.1,29.90,SE,146,6.9,6.9,73,0.00,CLR,,0.00,WeatherDisplay:10.37,2013-11-16 02:09:00,
2013-11-15 20:14:00,66.0,57.1,29.90,SE,134,5.8,5.8,73,0.00,CLR,,0.00,WeatherDisplay:10.37,2013-11-16 02:14:00,
2013-11-15 20:19:00,66.2,57.7,29.90,SE,134,10.4,10.4,74,0.00,CLR,,0.00,WeatherDisplay:10.37,2013-11-16 02:19:00,
2013-11-15 20:24:00,66.5,58.3,29.90,SSE,150,6.9,6.9,75,0.00,CLR,,0.00,WeatherDisplay:10.37,2013-11-16 02:24:00,
2013-11-15 20:29:00,66.7,58.9,29.90,SSE,155,5.8,5.8,76,0.00,CLR,,0.00,WeatherDisplay:10.37,2013-11-16 02:29:00,
2013-11-15 20:34:00,66.7,58.9,29.90,SSE,159,6.9,6.9,76,0.00,CLR,,0.00,WeatherDisplay:10.37,2013-11-16 02:34:00,
2013-11-15 20:39:00,66.7,59.3,29.91,SSE,162,9.2,9.2,77,0.00,CLR,,0.00,WeatherDisplay:10.37,2013-11-16 02:39:00,
2013-11-15 20:44:00,66.5,59.1,29.91,SSE,148,5.8,5.9,77,0.00,CLR,,0.00,WeatherDisplay:10.37,2013-11-16 02:44:00,
2013-11-15 20:49:00,66.5,59.4,29.91,SSE,165,10.4,10.4,78,0.00,CLR,,0.00,WeatherDisplay:10.37,2013-11-16 02:49:00,
2013-11-15 20:54:00,66.5,59.8,29.91,SSE,161,9.2,9.2,79,0.00,CLR,,0.00,WeatherDisplay:10.37,2013-11-16 02:54:00,
2013-11-15 20:59:00,66.5,60.1,29.91,SSE,164,11.5,11.5,80,0.00,CLR,,0.00,WeatherDisplay:10.37,2013-11-16 02:59:00,
2013-11-15 21:04:00,66.6,60.2,29.91,SSE,166,11.5,11.5,80,0.00,CLR,,0.00,WeatherDisplay:10.37,2013-11-16 03:04:00,
2013-11-15 21:09:00,66.6,60.2,29.91,SE,135,8.1,8.1,80,0.00,CLR,,0.00,WeatherDisplay:10.37,2013-11-16 03:09:00,
2013-11-15 21:14:00,66.7,60.7,29.90,SSE,157,9.2,9.2,81,0.00,CLR,,0.00,WeatherDisplay:10.37,2013-11-16 03:14:00,
2013-11-15 21:19:00,66.6,60.6,29.90,SSE,155,10.4,10.4,81,0.00,CLR,,0.00,WeatherDisplay:10.37,2013-11-16 03:19:00,
2013-11-15 21:24:00,66.6,60.9,29.91,SSE,154,10.4,10.4,82,0.00,CLR,,0.00,WeatherDisplay:10.37,2013-11-16 03:24:00,
2013-11-15 21:29:00,66.6,60.9,29.91,SSE,165,11.5,11.5,82,0.00,CLR,,0.00,WeatherDisplay:10.37,2013-11-16 03:29:00,
2013-11-15 21:34:00,66.5,60.8,29.91,SSE,166,12.7,12.7,82,0.00,CLR,,0.00,WeatherDisplay:10.37,2013-11-16 03:34:00,
2013-11-15 21:39:00,66.4,61.1,29.91,SE,142,9.2,9.2,83,0.00,CLR,,0.00,WeatherDisplay:10.37,2013-11-16 03:39:00,
2013-11-15 21:44:00,66.3,61.0,29.91,SSE,152,11.5,11.5,83,0.00,CLR,,0.00,WeatherDisplay:10.37,2013-11-16 03:44:00,
2013-11-15 21:49:00,66.2,60.9,29.91,SSE,157,15.0,15.0,83,0.00,CLR,,0.00,WeatherDisplay:10.37,2013-11-16 03:49:00,
2013-11-15 21:54:00,66.1,61.1,29.91,SSE,160,9.2,9.2,84,0.00,CLR,,0.00,WeatherDisplay:10.37,2013-11-16 03:54:00,
2013-11-15 21:59:00,66.0,61.0,29.92,SSE,159,11.5,11.5,84,0.00,CLR,,0.00,WeatherDisplay:10.37,2013-11-16 03:59:00,
2013-11-15 22:04:00,65.9,61.3,29.92,South,173,9.2,9.2,85,0.00,CLR,,0.00,WeatherDisplay:10.37,2013-11-16 04:04:00,
2013-11-15 22:09:00,65.8,61.2,29.91,SSE,162,12.0,12.0,85,0.00,CLR,,0.00,WeatherDisplay:10.37,2013-11-16 04:09:00,
2013-11-15 22:14:00,65.6,61.0,29.91,South,174,11.5,11.5,85,0.00,CLR,,0.00,WeatherDisplay:10.37,2013-11-16 04:14:00,
2013-11-15 22:19:00,65.6,61.3,29.92,SE,128,12.7,12.7,86,0.00,CLR,,0.00,WeatherDisplay:10.37,2013-11-16 04:19:00,
2013-11-15 22:24:00,65.5,61.2,29.91,SSE,159,11.5,11.5,86,0.00,CLR,,0.00,WeatherDisplay:10.37,2013-11-16 04:24:00,
2013-11-15 22:29:00,65.4,61.1,29.92,SSE,167,9.2,9.2,86,0.00,CLR,,0.00,WeatherDisplay:10.37,2013-11-16 04:29:00,
2013-11-15 22:34:00,65.2,61.2,29.92,SSE,165,8.1,8.1,87,0.00,CLR,,0.00,WeatherDisplay:10.37,2013-11-16 04:34:00,
2013-11-15 22:39:00,65.1,61.1,29.92,SSE,159,11.5,11.5,87,0.00,CLR,,0.00,WeatherDisplay:10.37,2013-11-16 04:39:00,
2013-11-15 22:44:00,65.0,61.4,29.92,South,169,10.4,10.4,88,0.00,CLR,,0.00,WeatherDisplay:10.37,2013-11-16 04:44:00,
2013-11-15 22:49:00,64.8,61.2,29.92,SSE,153,8.1,8.1,88,0.00,CLR,,0.00,WeatherDisplay:10.37,2013-11-16 04:49:00,
2013-11-15 22:54:00,64.7,61.1,29.92,SSE,167,11.5,11.5,88,0.00,CLR,,0.00,WeatherDisplay:10.37,2013-11-16 04:54:00,
2013-11-15 22:59:00,64.6,61.3,29.92,South,170,8.1,8.4,89,0.00,CLR,,0.00,WeatherDisplay:10.37,2013-11-16 04:59:00,
2013-11-15 23:01:00,64.5,61.2,29.92,SSE,159,9.2,9.2,89,0.00,CLR,,0.00,WeatherDisplay:10.37,2013-11-16 05:01:00,
2013-11-15 23:06:00,64.5,61.2,29.92,SSE,164,9.2,9.2,89,0.00,CLR,,0.00,WeatherDisplay:10.37,2013-11-16 05:06:00,
2013-11-15 23:11:00,64.3,61.0,29.93,SSE,153,8.1,8.1,89,0.00,CLR,,0.00,WeatherDisplay:10.37,2013-11-16 05:11:00,
2013-11-15 23:16:00,64.0,61.0,29.92,SSE,166,6.9,6.9,90,0.00,CLR,,0.00,WeatherDisplay:10.37,2013-11-16 05:16:00,
2013-11-15 23:21:00,63.8,60.8,29.93,SSE,157,6.9,6.9,90,0.00,CLR,,0.00,WeatherDisplay:10.37,2013-11-16 05:21:00,
2013-11-15 23:26:00,63.7,61.0,29.93,South,172,5.8,5.8,91,0.00,CLR,,0.00,WeatherDisplay:10.37,2013-11-16 05:26:00,
2013-11-15 23:31:00,63.5,60.8,29.93,South,191,6.9,6.9,91,0.00,CLR,,0.00,WeatherDisplay:10.37,2013-11-16 05:31:00,
2013-11-15 23:36:00,63.3,60.6,29.92,SSE,163,5.8,5.8,91,0.00,CLR,,0.00,WeatherDisplay:10.37,2013-11-16 05:36:00,
2013-11-15 23:41:00,63.2,60.8,29.92,SSE,156,5.8,5.8,92,0.00,CLR,,0.00,WeatherDisplay:10.37,2013-11-16 05:41:00,
2013-11-15 23:46:00,63.0,60.6,29.92,SSE,162,4.6,4.6,92,0.00,CLR,,0.00,WeatherDisplay:10.37,2013-11-16 05:46:00,
2013-11-15 23:51:00,63.0,60.6,29.92,SSE,153,4.6,4.6,92,0.00,CLR,,0.00,WeatherDisplay:10.37,2013-11-16 05:51:00,
2013-11-15 23:56:00,62.8,60.4,29.92,SSE,163,3.5,3.6,92,0.00,CLR,,0.00,WeatherDisplay:10.37,2013-11-16 05:56:00,